User: anonymous   Login
Location: Fort Wayne
(41.1310°N, 85.1290°W)
Time: 05:23:48
(UTC-04:00)
Language:

SL-08 RB Rocket - Orbit

View from above orbital plane
View from above orbital plane
View from above satellite
View from above satellite

Ground track
Ground track

The orbit data is extracted from the following two-line orbital elements,

1 26387U 00033D   15211.27161516  .00000195  00000-0  42432-4 0  9995
2 26387 098.0602 278.6271 0026649 004.1166 039.7361 14.67936892806942
Epoch (UTC): 30 July 2015 06:31:07
Eccentricity: 0.0026649
inclination: 98.0602°
perigee height: 649 km
apogee height: 686 km
right ascension of ascending node: 278.6271°
argument of perigee: 4.1166°
revolutions per day: 14.67936892
mean anomaly at epoch: 39.7361°
orbit number at epoch: 80694

The dashed part of the orbit path shows where the satellite is in the earth's shadow,  

DLR